Anchorage Merrill, AK

12:28 PM AKDT on March 25, 2017 (GMT -0800)
Merrill

Weather History for PAMR - October, 2014

Change the Weather History Date:

Tuesday, October 7, 2014

  Actual Average Record
Temperature  
Mean Temperature 31 °F -  
Max Temperature 39 °F 44 °F 57 °F (2006)
Min Temperature 23 °F 31 °F 23 °F (2014)
Degree Days  
Heating Degree Days 34    
Moisture  
Dew Point 18 °F    
Average Humidity 58    
Maximum Humidity 78    
Minimum Humidity 42    
Precipitation  
Precipitation 0.00 in - - ()
Sea Level Pressure  
Sea Level Pressure 30.11 in    
Wind  
Wind Speed 3 mph (NE)    
Max Wind Speed 7 mph    
Max Gust Speed -    
Visibility 10 miles    
Events      
Averages and records for this station are not official NWS values.
T = Trace of Precipitation, MM = Missing Value Source: NWS Daily Summary

Daily Weather History Graph

Daily Weather History Graph

Search for Another Location

Airport or City:

Trip Planner

Search our weather history database for the weather conditions in past years. The results will help you decide how hot, cold, wet, or windy it might be!

Date:

Astronomy

Oct. 07, 2014 Rise Set
Actual Time 8:21 AM AKDT 7:11 PM AKDT
Civil Twilight 7:38 AM AKDT 7:54 PM AKDT
Nautical Twilight 6:48 AM AKDT 8:44 PM AKDT
Astronomical Twilight 5:56 AM AKDT 9:36 PM AKDT
Moon 6:55 PM AKDT (10/7) 7:20 AM AKDT (10/7)
Length of Visible Light 12h 16m
Length of Day
10h 49m
Waxing Gibbous, 99% of the Moon is Illuminated
Oct 7
Waxing Gibbous
Oct 8
Full
Oct 15
Last Quarter
Oct 23
New
Oct 30
First Quarter

Hourly Weather History & Observations

Time (AKDT) Temp. Windchill Dew Point Humidity Pressure Visibility Wind Dir Wind Speed Gust Speed Precip Events Conditions
12:53 AM 32.0 °F 28.7 °F 17.1 °F 54% 30.13 in 10.0 mi Variable 3.5 mph - N/A   Partly Cloudy
1:53 AM 32.0 °F 28.7 °F 16.0 °F 52% 30.14 in 10.0 mi NE 3.5 mph - N/A   Partly Cloudy
2:53 AM 30.9 °F 27.5 °F 16.0 °F 54% 30.15 in 10.0 mi Variable 3.5 mph - N/A   Clear
3:53 AM 27.0 °F - 17.1 °F 66% 30.15 in 10.0 mi Calm Calm - N/A   Clear
4:53 AM 28.0 °F 24.2 °F 17.1 °F 63% 30.14 in 10.0 mi ENE 3.5 mph - N/A   Clear
5:53 AM 23.0 °F - 17.1 °F 78% 30.14 in 10.0 mi Calm Calm - N/A   Clear
6:53 AM 24.1 °F 19.7 °F 17.1 °F 75% 30.13 in 10.0 mi East 3.5 mph - N/A   Clear
7:53 AM 26.1 °F - 18.0 °F 71% 30.14 in 10.0 mi Calm Calm - N/A   Clear
8:53 AM 24.1 °F 19.7 °F 18.0 °F 77% 30.14 in 8.0 mi East 3.5 mph - N/A   Clear
9:53 AM 28.0 °F 22.8 °F 18.0 °F 66% 30.14 in 10.0 mi East 4.6 mph - N/A   Clear
10:53 AM 30.9 °F 27.5 °F 18.0 °F 59% 30.14 in 10.0 mi NNE 3.5 mph - N/A   Clear
11:53 AM 33.1 °F 28.7 °F 17.1 °F 52% 30.14 in 10.0 mi Variable 4.6 mph - N/A   Clear
12:53 PM 35.1 °F 32.2 °F 17.1 °F 48% 30.14 in 10.0 mi NNW 3.5 mph - N/A   Clear
1:53 PM 37.0 °F 34.5 °F 16.0 °F 42% 30.13 in 10.0 mi Variable 3.5 mph - N/A   Clear
2:53 PM 37.9 °F 35.5 °F 17.1 °F 43% 30.12 in 10.0 mi North 3.5 mph - N/A   Clear
3:53 PM 39.0 °F 34.0 °F 18.0 °F 43% 30.10 in 10.0 mi NW 6.9 mph - N/A   Clear
4:53 PM 39.9 °F 35.1 °F 19.0 °F 43% 30.08 in 10.0 mi NE 6.9 mph - N/A   Partly Cloudy
5:53 PM 39.9 °F 36.7 °F 19.0 °F 43% 30.06 in 10.0 mi North 4.6 mph - N/A   Clear
6:53 PM 37.9 °F 35.5 °F 19.0 °F 47% 30.06 in 10.0 mi NE 3.5 mph - N/A   Clear
7:53 PM 36.0 °F - 19.0 °F 50% 30.05 in 10.0 mi Calm Calm - N/A   Clear
8:53 PM 32.0 °F - 19.9 °F 61% 30.04 in 10.0 mi Calm Calm - N/A   Clear
9:53 PM 30.9 °F - 19.0 °F 61% 30.04 in 10.0 mi Calm Calm - N/A   Clear
10:53 PM 28.0 °F - 19.9 °F 72% 30.03 in 10.0 mi Calm Calm - N/A   Clear
11:53 PM 27.0 °F - 19.9 °F 75% 30.03 in 10.0 mi Calm Calm - N/A   Clear